Location: Brno
(49.2000°N, 16.6330°E)
Time: 14:39:23
(UTC+01:00)

Iridium 2 - Visible Passes

Search period start: 20 December 2014 00:00
Search period end: 30 December 2014 00:00
Orbit: 528 x 543 km, 85.5° (Epoch: 19 December)

Date Brightness Start Highest point End Pass type
(mag) Time Alt. Az. Time Alt. Az. Time Alt. Az.
21 Dec 6.3 07:05:15 10° SE 07:08:25 24° E 07:11:36 10° NNE visible
22 Dec 6.4 06:56:36 10° SE 06:59:41 22° E 07:02:47 10° NNE visible
23 Dec 6.4 06:47:56 10° SE 06:50:56 21° E 06:53:57 10° NNE visible
24 Dec 6.5 06:39:16 10° SE 06:42:10 20° E 06:45:04 10° NE visible
25 Dec 6.6 06:30:35 10° SE 06:33:23 19° E 06:36:10 10° NE visible
26 Dec 6.7 06:21:54 10° SE 06:24:34 18° E 06:27:15 10° NE visible
27 Dec 6.7 06:13:12 10° ESE 06:15:44 17° E 06:18:17 10° NE visible
28 Dec 6.8 06:04:29 10° ESE 06:06:54 16° E 06:09:18 10° NE visible
28 Dec 6.6 19:14:50 12° SSW 19:14:50 12° SSW 19:15:06 10° SSW visible
29 Dec 6.8 05:55:47 10° ESE 05:58:02 15° E 06:00:17 10° NE visible
29 Dec 5.1 17:27:19 20° E 17:27:19 20° E 17:29:43 10° ESE visible
29 Dec 5.2 19:02:22 35° WNW 19:02:42 36° W 19:06:15 10° SSW visible
